This demonstration page uses our WeatherBlox Daily Observations layout. Learn more.

40.92945, -100.16068

Hourly Observations for November 12, 2020

Temp ( °F °C ) Dew Point ( °F °C ) Humidity (%) Winds ( mph kmh ) Pressure ( in mb ) Visibility ( mi km ) Precip ( " mm )
12:15 am 00:15 Partly Cloudy 39 3.9 26 -3.5 59 59 S 7 11 30.03 1017 10 16.0934 0 0
12:35 am 00:35 Mostly Cloudy 39 3.7 26 -3.3 61 61 SSE 3 6 30.03 1017 10 16.0934 0 0
12:55 am 00:55 Cloudy 39 4.1 26 -3.5 58 58 S 5 7 30.03 1017 10 16.0934 0 0
1:15 am 01:15 Cloudy 37 2.7 27 -2.9 67 67 SSW 8 13 30.04 1017 10 16.0934 0 0
1:35 am 01:35 Cloudy 35 1.9 27 -2.6 72 72 NW 14 22 30.07 1018 10 16.0934 0 0
1:55 am 01:55 Mostly Cloudy 35 1.9 27 -2.7 72 72 NW 9 15 30.07 1018 10 16.0934 0 0
2:15 am 02:15 Partly Cloudy 32 0.1 26 -3.2 79 79 Calm 30.08 1018 10 16.0934 0 0
2:35 am 02:35 Clear 30 -0.9 26 -3.5 83 83 WNW 7 11 30.09 1019 10 16.0934 0 0
2:55 am 02:55 Mostly Cloudy 30 -1.3 26 -3.6 85 85 Calm 30.1 1019 10 16.0934 0 0
3:15 am 03:15 Cloudy 31 -0.7 26 -3.1 84 84 Calm 30.08 1019 10 16.0934 0 0
3:35 am 03:35 Cloudy 32 -0.1 26 -3.1 80 80 Calm 30.07 1018 10 16.0934 0 0
3:55 am 03:55 Mostly Cloudy 32 0 26 -3.2 79 79 Calm 30.06 1018 10 16.0934 0 0
4:15 am 04:15 Partly Cloudy 32 0 27 -2.8 82 82 SSE 5 7 30.06 1018 10 16.0934 0 0
4:35 am 04:35 Clear 31 -0.3 27 -2.9 83 83 SE 5 7 30.06 1018 10 16.0934 0 0
4:55 am 04:55 Clear 32 0 27 -2.9 81 81 SE 3 6 30.06 1018 10 16.0934 0 0
5:15 am 05:15 Clear 31 -0.6 27 -3 84 84 SSE 6 9 30.06 1018 10 16.0934 0 0
5:35 am 05:35 Clear 30 -0.9 27 -2.9 86 86 Calm 30.07 1018 10 16.0934 0 0
5:55 am 05:55 Clear 29 -1.6 25 -3.7 86 86 N 15 24 30.1 1019 10 16.0934 0 0
6:15 am 06:15 Clear 30 -0.9 26 -3.5 83 83 N 5 7 30.09 1019 10 16.0934 0 0
6:35 am 06:35 Clear 31 -0.6 26 -3.3 82 82 N 9 15 30.09 1019 10 16.0934 0 0
6:55 am 06:55 Clear 30 -0.9 27 -2.7 88 88 N 17 28 30.14 1021 10 16.0934 0 0
7:15 am 07:15 Partly Cloudy 29 -1.5 26 -3.6 86 86 N 15 24 30.16 1021 10 16.0934 0 0
7:35 am 07:35 Partly Cloudy 28 -2 24 -4.2 85 85 N 15 24 30.18 1022 10 16.0934 0 0
7:55 am 07:55 Partly Cloudy 28 -2.3 23 -4.9 83 83 N 12 19 30.19 1022 10 16.0934 0 0
8:15 am 08:15 Sunny 28 -2.4 23 -4.9 83 83 N 14 22 30.18 1022 10 16.0934 0 0
8:35 am 08:35 Sunny 28 -2.1 23 -4.8 82 82 N 15 24 30.22 1023 10 16.0934 0 0
8:55 am 08:55 Mostly Cloudy 28 -2 24 -4.6 83 83 N 13 20 30.22 1023 10 16.0934 0 0
9:15 am 09:15 Partly Cloudy 29 -1.8 23 -4.9 80 80 N 13 20 30.23 1024 10 16.0934 0 0
9:35 am 09:35 Partly Cloudy 29 -1.4 23 -5 77 77 N 13 20 30.23 1024 10 16.0934 0 0
9:55 am 09:55 Partly Cloudy 30 -1.1 22 -5.3 73 73 N 15 24 30.23 1024 10 16.0934 0 0
10:15 am 10:15 Partly Cloudy 30 -1 23 -5.2 73 73 N 10 17 30.22 1023 10 16.0934 0 0
10:35 am 10:35 Sunny 32 0 24 -4.7 71 71 N 13 20 30.22 1023 10 16.0934 0 0
10:55 am 10:55 Mostly Cloudy 33 0.5 24 -4.7 68 68 N 13 20 30.22 1023 10 16.0934 0 0
11:15 am 11:15 Cloudy 32 0 23 -5 69 69 NNW 13 20 30.23 1024 10 16.0934 0 0
11:35 am 11:35 Mostly Cloudy 33 0.5 23 -5.1 66 66 NNW 13 20 30.22 1023 10 16.0934 0 0
11:55 am 11:55 Partly Cloudy 33 0.8 23 -4.9 66 66 NW 14 22 30.22 1023 10 16.0934 0 0
12:15 pm 12:15 Mostly Cloudy 33 0.8 23 -5.2 65 65 NNW 12 19 30.22 1023 10 16.0934 0 0
12:35 pm 12:35 Cloudy 34 1 23 -5.1 64 64 N 14 22 30.22 1023 10 16.0934 0 0
12:55 pm 12:55 Partly Cloudy 33 0.7 23 -5.1 66 66 NNW 16 26 30.21 1023 10 16.0934 0 0
1:15 pm 13:15 Sunny 34 1.2 23 -4.9 64 64 NNW 14 22 30.21 1023 10 16.0934 0 0
1:35 pm 13:35 Sunny 36 2.3 24 -4.3 62 62 NNW 15 24 30.2 1023 10 16.0934 0 0
1:55 pm 13:55 Sunny 37 3 25 -4.1 60 60 NNW 14 22 30.2 1023 10 16.0934 0 0
2:15 pm 14:15 Sunny 37 2.9 24 -4.5 59 59 NW 17 28 30.2 1023 10 16.0934 0 0
2:35 pm 14:35 Sunny 38 3.4 25 -4.1 58 58 NW 14 22 30.19 1022 10 16.0934 0 0
2:55 pm 14:55 Sunny 38 3.5 24 -4.2 57 57 NNW 17 28 30.19 1022 10 16.0934 0 0
3:15 pm 15:15 Sunny 39 3.7 24 -4.3 56 56 NW 15 24 30.19 1022 10 16.0934 0 0
3:35 pm 15:35 Sunny 38 3.6 24 -4.6 55 55 NNW 13 20 30.2 1023 10 16.0934 0 0
3:55 pm 15:55 Sunny 39 3.7 24 -4.5 55 55 NNW 13 20 30.21 1023 10 16.0934 0 0
4:15 pm 16:15 Sunny 38 3.5 24 -4.7 55 55 NW 13 20 30.23 1024 10 16.0934 0 0
4:35 pm 16:35 Sunny 38 3.4 23 -5 55 55 NNW 9 15 30.23 1024 10 16.0934 0 0
4:55 pm 16:55 Sunny 37 3 23 -4.9 57 57 NNW 7 11 30.25 1024 10 16.0934 0 0
5:15 pm 17:15 Sunny 35 1.4 24 -4.3 66 66 NNW 5 7 30.26 1025 10 16.0934 0 0
5:35 pm 17:35 Clear 32 0 24 -4.7 71 71 NNW 6 9 30.28 1025 10 16.0934 0 0
5:55 pm 17:55 Clear 31 -0.7 24 -4.6 75 75 Calm 30.29 1026 10 16.0934 0 0
6:15 pm 18:15 Clear 29 -1.4 23 -4.8 78 78 N 3 6 30.31 1026 10 16.0934 0 0
6:35 pm 18:35 Clear 30 -1 26 -3.6 83 83 N 3 6 30.31 1026 10 16.0934 0 0
6:55 pm 18:55 Clear 30 -0.9 25 -3.7 82 82 Calm 30.32 1027 10 16.0934 0 0
7:15 pm 19:15 Clear 28 -2.5 24 -4.7 85 85 Calm 30.33 1027 10 16.0934 0 0
7:35 pm 19:35 Clear 29 -1.7 25 -4.1 84 84 Calm 30.32 1027 10 16.0934 0 0
7:55 pm 19:55 Clear 28 -2.2 23 -5 81 81 SSW 8 13 30.34 1027 10 16.0934 0 0
8:15 pm 20:15 Clear 27 -2.6 23 -5.1 83 83 Calm 30.33 1027 10 16.0934 0 0
8:35 pm 20:35 Clear 28 -2.2 23 -4.9 82 82 Calm 30.33 1027 10 16.0934 0 0
8:55 pm 20:55 Clear 27 -2.7 22 -5.3 83 83 Calm 30.32 1027 10 16.0934 0 0
9:15 pm 21:15 Clear 27 -2.6 22 -5.3 82 82 Calm 30.33 1027 10 16.0934 0 0
9:35 pm 21:35 Clear 27 -3 23 -5.2 85 85 SSE 5 7 30.34 1027 10 16.0934 0 0
9:55 pm 21:55 Clear 28 -2.5 24 -4.6 86 86 Calm 30.34 1028 10 16.0934 0 0
10:15 pm 22:15 Clear 26 -3.3 23 -5.1 88 88 Calm 30.34 1027 10 16.0934 0 0
10:35 pm 22:35 Clear 26 -3.6 22 -5.8 85 85 Calm 30.35 1028 10 16.0934 0 0
10:55 pm 22:55 Clear 25 -3.8 21 -5.9 86 86 SSW 5 7 30.35 1028 10 16.0934 0 0
11:15 pm 23:15 Clear 25 -4 20 -6.6 82 82 S 8 13 30.36 1028 10 16.0934 0 0
11:35 pm 23:35 Clear 25 -3.8 20 -6.5 82 82 S 5 7 30.35 1028 10 16.0934 0 0
11:55 pm 23:55 Clear 26 -3.6 21 -6 84 84 S 5 7 30.34 1028 10 16.0934 0 0

Powered by AerisWeather